Home   Weather   Sioux Falls   Past weeks
Flag for USA

Past Weather in Sioux Falls, South Dakota, USA — Yesterday and Last 2 Weeks

Now
2 °F

Overcast.


Feels Like: -6 °F
Forecast: 3 / -10 °F
Wind: 3 mph from North

Location: Foss Field

Current Time: Jan 19, 2019 at 5:35:46 pm

Latest Report: Jan 19, 2019 at 4:56 pm


Visibility: 10 mi

Pressure: 30.44 "Hg

Humidity: N/A

Dew Point: N/A

Location of Sioux FallsLocation

Past Weather in Sioux Falls — Graph

°F

Sioux Falls Temperature Yesterday

Maximum temperature yesterday: 18 °F (at 2:56 am)
Minimum temperature yesterday: 4 °F (at 10:56 pm)
Average temperature yesterday: 12 °F

High & Low Weather Summary for the Past Weeks

 TemperatureHumidityPressure
High45 °F (Jan 5, 1:56 pm)97% (Jan 7, 12:56 am)30.63 "Hg (Jan 7, 12:56 am)
Low-9 °F (Jan 19, 6:56 am)54% (Jan 10, 1:56 pm)29.48 "Hg (Jan 6, 10:16 pm)
Average25 °F80%30.17 "Hg
* Reported Jan 4 3:56 pm — Jan 19 3:56 pm, Sioux Falls. Weather by CustomWeather, © 2019

Note: Actual official high and low records may vary slightly from our data, if they occured in-between our weather recording intervals... More about our weather records

Advertising

Sioux Falls Weather History for the Previous 24 Hours

Scroll right to see more
 ConditionsComfort  
Time TempWeatherWind HumidityBarometerVisibility
3:56 pm
Sat, Jan 19
2 °FPartly sunny.3 mph54%30.43 "Hg10 mi
2:56 pm1 °FPartly sunny.5 mph54%30.44 "Hg10 mi
1:56 pm1 °FPassing clouds.5 mph54%30.43 "Hg10 mi
12:56 pm-1 °FPassing clouds.8 mph59%30.50 "Hg10 mi
11:56 am-2 °FPassing clouds.7 mph62%30.53 "Hg10 mi
10:56 am-5 °FPassing clouds.6 mph64%30.52 "Hg10 mi
9:56 am-7 °FSunny.8 mph68%30.51 "Hg10 mi
8:56 am-9 °FSunny.7 mph67%30.50 "Hg10 mi
7:56 amN/ASunny.7 mphN/A30.50 "Hg10 mi
6:56 am-9 °FClear.7 mph74%30.49 "Hg10 mi
5:56 am-7 °FClear.7 mph75%30.49 "Hg10 mi
4:56 am-3 °FPassing clouds.13 mphN/A30.47 "Hg10 mi
3:56 am0 °FOvercast.9 mph71%30.46 "Hg10 mi
2:56 am1 °FMostly cloudy.9 mph72%30.46 "Hg10 mi
1:56 am3 °FOvercast.10 mph76%30.44 "Hg10 mi
12:56 am4 °FOvercast.12 mph73%30.44 "Hg9 mi
11:56 pm
Fri, Jan 18
4 °FLight snow. Overcast.14 mph76%30.43 "Hg7 mi
10:56 pm4 °FLight snow. Overcast.14 mph80%30.41 "Hg8 mi
9:56 pm5 °FLight snow. Partly cloudy.18 mph76%30.39 "Hg6 mi
9:30 pm5 °FLight snow. Mostly cloudy.21 mph76%30.27 "Hg7 mi
8:56 pm6 °FLight snow. Overcast.17 mph76%30.36 "Hg2 mi
7:56 pm6 °FLight snow. Mostly cloudy.18 mph79%30.33 "Hg4 mi
6:56 pm7 °FLight snow. Overcast.22 mph79%30.31 "Hg3 mi
5:56 pm8 °FLight snow. Overcast.22 mph76%30.27 "Hg7 mi
Weather by CustomWeather, © 2019

See weather overview